星链-31288 (STARLINK-31288 )

导读 | 星芒AI

STARLINK-31288 是 SpaceX Starlink 卫星互联网项目中的一颗低轨卫星,属于其第三代星群(v1.5 或 v2 版本)。该卫星于 2023 年发射,运行在约 550 公里的轨道高度,旨在为全球用户提供高速、低延迟的宽带互联网服务。Starlink 项目由数千颗卫星组成,致力于改善偏远地区的网络接入。STARLINK-31288 采用先进推进系统和激光通信技术,以提高连接效率并减少太空碎片风险。

基本信息
目录编号:
59260
目录名称:
STARLINK-31288
国际标识:
2024-050G
轨道中心:
EARTH
卫星名称:
星链-31288
卫星全名:
星链-31288 (STARLINK-31288 )
卫星状态:
已陨落 最后检测时间 2025-10-03
发射日期:
2024-03-19 UTC
国别 :
美国 (US)
星等 :
--
轨道信息
数据来源 国际轨道数据
星历时间: 2025-10-04T01:47:41+0800
轨道信息已过期30天
半长轴: 6611.666km
偏心率: 0.0011269
轨道倾角: 53.118°
近地点辐角 218.059°
升交点赤经 162.885°
平近点角 141.965°
近地点: 226.08km
远地点: 240.982km
周期: 89.172分钟
每日圈数: 16.148657
详细信息
固有亮度:
5
最大亮度:
0.3
卫星平台:
Starlink v2.0 mini
覆盖范围:
全球
运营商:
太空探索技术公司
运营商所在国:
美国
制造商(研发单位):
太空探索技术公司
制造商所在国:
美国
使用方式:
暂无
卫星简介
星链(Starlink)计划是由太空探索技术公司(SpaceX)提出的一个巨型低轨卫星互联网星座项目,计划在2019年至2024年间在太空搭建由约1.2万颗卫星组成的“星链”网络,其中1584颗将部署在地球上空550千米处的近地轨道,并从2020年开始工作。该卫星仍在工作。